QPF
0.00 0.00 0.00 0.00 0.00 0.00 0.00 0.00 0.00 0.01 0.01 0.01 0.01 0.01 0.01 0.01 0.01 0.01 0.01 0.01 0.00 0.00 0.00 0.00 0.00 0.00 0.00 0.00 0.00 0.00 0.00 0.00 0.00 0.00 0.00 0.00 0.01 0.01 0.01 0.01 0.01 0.01 0.00
0.00 0.00 0.00 0.00 0.00 0.00 0.00 0.01 0.01 0.01 0.01 0.01 0.01 0.01 0.01 0.01 0.00 0.00 0.00 0.00 0.00 0.00 0.00 0.00 0.00 0.00 0.00 0.00 0.00 0.00 0.00 0.01 0.01 0.01 0.00 0.00 0.01 0.01 0.01 0.02 0.01 0.01 0.01
0.00 0.00 0.00 0.00 0.00 0.00 0.00 0.00 0.00 0.01 0.01 0.01 0.01 0.01 0.00 0.00 0.00 0.00 0.00 0.00 0.00 0.00 0.00 0.00 0.00 0.00 0.00 0.00 0.01 0.01 0.01 0.01 0.02 0.02 0.01 0.01 0.01 0.01 0.02 0.02 0.02 0.02 0.01
0.00 0.00 0.00 0.00 0.00 0.01 0.01 0.01 0.01 0.01 0.01 0.01 0.01 0.01 0.01 0.01 0.00 0.00 0.00 0.00 0.00 0.00 0.00 0.00 0.00 0.00 0.01 0.01 0.02 0.02 0.03 0.03 0.03 0.03 0.03 0.02 0.02 0.02 0.03 0.04 0.03 0.03 0.03
0.00 0.00 0.00 0.01 0.01 0.01 0.01 0.01 0.01 0.01 0.01 0.01 0.01 0.01 0.01 0.00 0.00 0.00 0.00 0.00 0.00 0.00 0.00 0.00 0.00 0.00 0.01 0.01 0.02 0.03 0.05 0.06 0.05 0.05 0.05 0.04 0.03 0.04 0.05 0.05 0.05 0.04 0.03
0.00 0.01 0.01 0.01 0.01 0.02 0.02 0.02 0.02 0.02 0.01 0.01 0.01 0.01 0.01 0.01 0.01 0.01 0.01 0.01 0.00 0.00 0.00 0.00 0.00 0.00 0.00 0.00 0.01 0.01 0.03 0.05 0.06 0.06 0.06 0.06 0.05 0.06 0.07 0.06 0.05 0.05 0.04
0.01 0.02 0.02 0.02 0.02 0.02 0.02 0.02 0.02 0.01 0.01 0.01 0.01 0.01 0.01 0.01 0.00 0.00 0.00 0.00 0.00 0.01 0.01 0.01 0.01 0.01 0.01 0.02 0.02 0.01 0.02 0.02 0.03 0.07 0.08 0.07 0.07 0.07 0.08 0.07 0.06 0.06 0.05
0.02 0.02 0.02 0.02 0.02 0.02 0.01 0.01 0.01 0.01 0.01 0.01 0.00 0.00 0.01 0.00 0.00 0.00 0.00 0.00 0.01 0.01 0.01 0.01 0.02 0.03 0.03 0.02 0.01 0.02 0.03 0.04 0.04 0.05 0.07 0.06 0.06 0.06 0.06 0.06 0.06 0.05 0.04
0.02 0.02 0.02 0.01 0.01 0.00 0.00 0.00 0.00 0.00 0.00 0.00 0.00 0.00 0.01 0.01 0.00 0.00 0.00 0.00 0.01 0.01 0.01 0.01 0.01 0.03 0.01 0.00 0.01 0.03 0.03 0.04 0.02 0.02 0.03 0.03 0.03 0.03 0.03 0.05 0.07 0.06 0.04
0.02 0.01 0.01 0.01 0.00 0.00 0.00 0.00 0.00 0.00 0.00 0.00 0.00 0.00 0.01 0.01 0.00 0.00 0.00 0.01 0.01 0.01 0.01 0.02 0.01 0.01 0.00 0.00 0.01 0.04 0.05 0.04 0.03 0.04 0.04 0.04 0.05 0.05 0.04 0.06 0.07 0.06 0.05
0.01 0.01 0.01 0.00 0.00 0.00 0.00 0.00 0.00 0.00 0.01 0.01 0.01 0.01 0.01 0.01 0.00 0.00 0.00 0.01 0.01 0.01 0.01 0.02 0.02 0.00 0.00 0.00 0.01 0.04 0.04 0.02 0.04 0.06 0.05 0.05 0.05 0.05 0.05 0.05 0.05 0.06 0.06
0.02 0.01 0.01 0.00 0.00 0.00 0.01 0.01 0.01 0.01 0.01 0.01 0.01 0.01 0.01 0.01 0.01 0.00 0.00 0.00 0.00 0.02 0.03 0.02 0.02 0.00 0.00 0.00 0.01 0.02 0.01 0.03 0.06 0.06 0.05 0.04 0.04 0.04 0.04 0.04 0.04 0.05 0.05
0.02 0.01 0.01 0.01 0.01 0.00 0.01 0.01 0.01 0.01 0.01 0.01 0.01 0.01 0.01 0.01 0.01 0.00 0.00 0.00 0.00 0.01 0.02 0.01 0.01 0.00 0.01 0.03 0.02 0.01 0.03 0.06 0.06 0.05 0.05 0.05 0.04 0.04 0.04 0.04 0.04 0.05 0.05
0.01 0.01 0.01 0.01 0.01 0.01 0.01 0.01 0.01 0.02 0.01 0.01 0.01 0.01 0.01 0.01 0.01 0.01 0.00 0.01 0.01 0.01 0.01 0.01 0.01 0.01 0.02 0.03 0.03 0.04 0.05 0.06 0.05 0.06 0.05 0.04 0.04 0.03 0.04 0.03 0.04 0.04 0.03
0.01 0.01 0.01 0.01 0.01 0.01 0.01 0.01 0.01 0.01 0.00 0.00 0.01 0.01 0.01 0.01 0.01 0.01 0.01 0.01 0.01 0.01 0.01 0.02 0.03 0.03 0.02 0.03 0.03 0.04 0.05 0.06 0.05 0.05 0.05 0.04 0.03 0.03 0.03 0.03 0.04 0.03 0.03
0.01 0.01 0.01 0.01 0.01 0.01 0.01 0.02 0.01 0.00 0.00 0.00 0.00 0.00 0.01 0.01 0.01 0.01 0.01 0.01 0.01 0.01 0.01 0.02 0.02 0.02 0.02 0.02 0.02 0.03 0.04 0.05 0.05 0.04 0.04 0.04 0.03 0.03 0.03 0.03 0.03 0.03 0.03
0.01 0.01 0.01 0.01 0.01 0.01 0.01 0.02 0.02 0.02 0.00 0.00 0.00 0.00 0.01 0.01 0.01 0.01 0.01 0.01 0.01 0.01 0.01 0.02 0.02 0.02 0.02 0.02 0.02 0.02 0.03 0.04 0.05 0.04 0.04 0.03 0.03 0.03 0.03 0.02 0.02 0.02 0.02
0.01 0.00 0.01 0.01 0.00 0.00 0.00 0.01 0.01 0.02 0.02 0.02 0.01 0.01 0.01 0.01 0.01 0.01 0.01 0.01 0.01 0.01 0.01 0.02 0.02 0.03 0.03 0.02 0.02 0.02 0.02 0.02 0.03 0.04 0.04 0.03 0.03 0.03 0.03 0.02 0.02 0.02 0.02
0.00 0.00 0.00 0.01 0.00 0.00 0.00 0.00 0.00 0.01 0.01 0.01 0.01 0.01 0.01 0.02 0.02 0.02 0.02 0.02 0.01 0.01 0.02 0.02 0.02 0.03 0.02 0.02 0.02 0.02 0.02 0.02 0.02 0.02 0.03 0.03 0.03 0.03 0.03 0.02 0.02 0.02 0.02
0.00 0.00 0.00 0.00 0.00 0.00 0.00 0.00 0.00 0.01 0.01 0.01 0.01 0.01 0.01 0.02 0.02 0.02 0.02 0.02 0.01 0.01 0.01 0.01 0.02 0.02 0.02 0.02 0.01 0.01 0.01 0.01 0.01 0.01 0.02 0.03 0.03 0.02 0.02 0.02 0.02 0.01 0.02
0.00 0.00 0.00 0.00 0.00 0.00 0.00 0.00 0.00 0.01 0.01 0.01 0.01 0.01 0.02 0.02 0.03 0.03 0.03 0.03 0.02 0.02 0.01 0.01 0.01 0.01 0.01 0.01 0.01 0.01 0.01 0.01 0.01 0.01 0.02 0.02 0.02 0.01 0.01 0.01 0.01 0.01 0.01
0.00 0.00 0.00 0.00 0.00 0.00 0.00 0.00 0.00 0.00 0.00 0.01 0.01 0.02 0.02 0.02 0.02 0.03 0.03 0.03 0.03 0.02 0.01 0.01 0.01 0.01 0.01 0.00 0.00 0.00 0.01 0.01 0.01 0.01 0.02 0.02 0.02 0.01 0.01 0.00 0.00 0.00 0.01
0.00 0.00 0.00 0.00 0.00 0.00 0.00 0.00 0.00 0.00 0.00 0.01 0.01 0.01 0.01 0.02 0.02 0.02 0.03 0.03 0.02 0.02 0.01 0.01 0.00 0.00 0.00 0.00 0.00 0.00 0.00 0.00 0.00 0.01 0.02 0.03 0.02 0.01 0.00 0.00 0.00 0.00 0.00
0.00 0.00 0.00 0.00 0.00 0.00 0.00 0.00 0.00 0.00 0.00 0.00 0.00 0.01 0.01 0.01 0.02 0.02 0.02 0.02 0.02 0.01 0.01 0.00 0.00 0.00 0.00 0.00 0.00 0.00 0.00 0.00 0.00 0.00 0.02 0.03 0.02 0.01 0.00 0.00 0.00 0.00 0.00
0.00 0.00 0.00 0.00 0.00 0.00 0.00 0.00 0.00 0.00 0.00 0.00 0.00 0.00 0.01 0.01 0.01 0.01 0.02 0.02 0.01 0.01 0.00 0.00 0.00 0.00 0.00 0.00 0.00 0.00 0.00 0.00 0.00 0.00 0.02 0.03 0.02 0.02 0.01 0.00 0.00 0.00 0.00
0.00 0.00 0.00 0.00 0.00 0.00 0.00 0.00 0.00 0.00 0.00 0.00 0.00 0.00 0.00 0.00 0.01 0.01 0.01 0.02 0.01 0.01 0.00 0.00 0.00 0.00 0.00 0.00 0.00 0.00 0.00 0.00 0.00 0.00 0.01 0.03 0.02 0.01 0.02 0.02 0.01 0.01 0.01
MSLP
1017.45 1017.77 1018.13 1018.51 1018.91 1019.32 1019.76 1020.21 1020.66 1021.11 1021.52 1021.88 1022.14 1022.31 1022.38 1022.34 1022.24 1022.09 1021.93 1021.78 1021.64 1021.53 1021.42 1021.30 1021.14 1020.91 1020.62 1020.25 1019.81 1019.34 1018.87 1018.42 1018.03 1017.68 1017.41 1017.18 1016.99 1016.82 1016.63 1016.43 1016.20 1015.93 1015.66
1018.43 1018.72 1019.03 1019.36 1019.71 1020.07 1020.45 1020.85 1021.25 1021.64 1021.99 1022.28 1022.48 1022.59 1022.58 1022.49 1022.33 1022.13 1021.91 1021.71 1021.55 1021.41 1021.30 1021.18 1021.05 1020.86 1020.61 1020.30 1019.92 1019.51 1019.07 1018.64 1018.24 1017.87 1017.55 1017.26 1016.98 1016.70 1016.41 1016.08 1015.73 1015.34 1014.94
1019.48 1019.73 1019.99 1020.27 1020.54 1020.83 1021.13 1021.44 1021.76 1022.08 1022.36 1022.60 1022.75 1022.82 1022.78 1022.66 1022.47 1022.24 1022.00 1021.77 1021.57 1021.40 1021.27 1021.14 1021.00 1020.84 1020.62 1020.35 1020.02 1019.65 1019.25 1018.85 1018.44 1018.06 1017.69 1017.33 1016.97 1016.60 1016.20 1015.76 1015.29 1014.79 1014.28
1020.55 1020.77 1020.99 1021.19 1021.39 1021.58 1021.78 1021.99 1022.22 1022.46 1022.69 1022.87 1023.00 1023.05 1023.02 1022.90 1022.71 1022.47 1022.22 1021.96 1021.72 1021.52 1021.34 1021.18 1021.02 1020.85 1020.64 1020.39 1020.09 1019.74 1019.37 1018.97 1018.56 1018.15 1017.74 1017.33 1016.90 1016.45 1015.96 1015.43 1014.87 1014.27 1013.66
1021.58 1021.78 1021.95 1022.08 1022.19 1022.28 1022.38 1022.50 1022.65 1022.81 1022.98 1023.14 1023.26 1023.32 1023.30 1023.21 1023.04 1022.81 1022.55 1022.27 1021.99 1021.73 1021.49 1021.27 1021.07 1020.86 1020.62 1020.36 1020.07 1019.73 1019.35 1018.95 1018.53 1018.09 1017.64 1017.17 1016.69 1016.18 1015.64 1015.05 1014.43 1013.78 1013.11
1022.48 1022.66 1022.78 1022.86 1022.89 1022.90 1022.91 1022.95 1023.02 1023.13 1023.26 1023.40 1023.53 1023.61 1023.62 1023.56 1023.42 1023.21 1022.93 1022.62 1022.30 1021.97 1021.66 1021.37 1021.09 1020.82 1020.54 1020.25 1019.92 1019.56 1019.17 1018.75 1018.30 1017.83 1017.34 1016.83 1016.31 1015.77 1015.21 1014.61 1013.98 1013.31 1012.62
1023.18 1023.34 1023.43 1023.45 1023.43 1023.38 1023.33 1023.30 1023.32 1023.39 1023.50 1023.64 1023.78 1023.89 1023.93 1023.90 1023.78 1023.58 1023.29 1022.95 1022.57 1022.17 1021.78 1021.41 1021.05 1020.70 1020.36 1020.01 1019.64 1019.25 1018.82 1018.36 1017.88 1017.37 1016.85 1016.32 1015.78 1015.24 1014.69 1014.11 1013.51 1012.88 1012.23
1023.64 1023.77 1023.83 1023.83 1023.77 1023.69 1023.60 1023.54 1023.54 1023.59 1023.69 1023.83 1023.98 1024.10 1024.17 1024.16 1024.05 1023.85 1023.54 1023.17 1022.73 1022.27 1021.81 1021.35 1020.92 1020.50 1020.09 1019.68 1019.25 1018.81 1018.34 1017.84 1017.31 1016.78 1016.23 1015.69 1015.16 1014.63 1014.11 1013.60 1013.06 1012.51 1011.92
1023.84 1023.96 1024.00 1023.99 1023.92 1023.83 1023.74 1023.68 1023.66 1023.71 1023.81 1023.95 1024.11 1024.24 1024.31 1024.31 1024.20 1023.98 1023.65 1023.24 1022.77 1022.25 1021.72 1021.20 1020.70 1020.22 1019.75 1019.28 1018.81 1018.32 1017.81 1017.27 1016.71 1016.14 1015.58 1015.03 1014.52 1014.03 1013.56 1013.11 1012.67 1012.20 1011.70
1023.86 1023.95 1024.00 1023.99 1023.93 1023.86 1023.78 1023.73 1023.73 1023.78 1023.88 1024.02 1024.16 1024.29 1024.35 1024.34 1024.21 1023.98 1023.63 1023.19 1022.68 1022.13 1021.56 1021.00 1020.45 1019.92 1019.41 1018.91 1018.39 1017.86 1017.32 1016.74 1016.16 1015.57 1015.00 1014.45 1013.95 1013.50 1013.09 1012.71 1012.35 1011.97 1011.56
1023.76 1023.84 1023.89 1023.89 1023.86 1023.81 1023.77 1023.74 1023.75 1023.82 1023.92 1024.05 1024.18 1024.28 1024.33 1024.28 1024.14 1023.88 1023.52 1023.06 1022.53 1021.96 1021.37 1020.78 1020.21 1019.66 1019.13 1018.60 1018.06 1017.51 1016.93 1016.34 1015.74 1015.13 1014.56 1014.02 1013.54 1013.11 1012.75 1012.42 1012.12 1011.81 1011.46
1023.62 1023.69 1023.75 1023.77 1023.77 1023.75 1023.74 1023.75 1023.78 1023.85 1023.95 1024.07 1024.18 1024.26 1024.27 1024.20 1024.03 1023.76 1023.38 1022.91 1022.37 1021.80 1021.21 1020.62 1020.04 1019.48 1018.94 1018.39 1017.84 1017.28 1016.69 1016.09 1015.48 1014.87 1014.29 1013.76 1013.29 1012.89 1012.55 1012.25 1011.98 1011.71 1011.39
1023.48 1023.55 1023.61 1023.66 1023.69 1023.71 1023.73 1023.76 1023.82 1023.91 1024.01 1024.11 1024.20 1024.25 1024.24 1024.15 1023.95 1023.66 1023.27 1022.80 1022.27 1021.70 1021.11 1020.52 1019.95 1019.39 1018.83 1018.29 1017.73 1017.17 1016.58 1015.97 1015.36 1014.76 1014.19 1013.67 1013.21 1012.82 1012.48 1012.19 1011.93 1011.66 1011.35
1023.38 1023.44 1023.50 1023.56 1023.61 1023.66 1023.72 1023.78 1023.87 1023.96 1024.07 1024.17 1024.25 1024.28 1024.25 1024.14 1023.93 1023.63 1023.24 1022.77 1022.24 1021.67 1021.08 1020.50 1019.92 1019.35 1018.79 1018.24 1017.68 1017.11 1016.53 1015.94 1015.34 1014.76 1014.21 1013.70 1013.25 1012.86 1012.52 1012.23 1011.95 1011.67 1011.35
1023.29 1023.34 1023.39 1023.45 1023.52 1023.59 1023.68 1023.77 1023.88 1024.00 1024.12 1024.22 1024.30 1024.33 1024.29 1024.18 1023.97 1023.66 1023.27 1022.80 1022.27 1021.70 1021.11 1020.51 1019.92 1019.33 1018.76 1018.20 1017.63 1017.07 1016.49 1015.92 1015.35 1014.79 1014.27 1013.78 1013.35 1012.98 1012.64 1012.34 1012.05 1011.75 1011.42
1023.18 1023.20 1023.24 1023.30 1023.37 1023.46 1023.57 1023.69 1023.82 1023.97 1024.11 1024.24 1024.33 1024.37 1024.34 1024.23 1024.03 1023.73 1023.34 1022.87 1022.34 1021.75 1021.15 1020.52 1019.90 1019.29 1018.69 1018.11 1017.54 1016.97 1016.41 1015.86 1015.32 1014.81 1014.33 1013.88 1013.48 1013.13 1012.81 1012.52 1012.23 1011.93 1011.59
1023.02 1023.01 1023.03 1023.07 1023.14 1023.23 1023.36 1023.51 1023.67 1023.85 1024.02 1024.18 1024.30 1024.37 1024.37 1024.27 1024.09 1023.80 1023.42 1022.95 1022.40 1021.80 1021.17 1020.52 1019.86 1019.21 1018.58 1017.97 1017.38 1016.82 1016.27 1015.75 1015.25 1014.79 1014.36 1013.97 1013.61 1013.30 1013.01 1012.74 1012.47 1012.19 1011.87
1022.82 1022.77 1022.75 1022.77 1022.83 1022.93 1023.07 1023.24 1023.43 1023.64 1023.86 1024.05 1024.21 1024.31 1024.34 1024.27 1024.11 1023.84 1023.47 1023.00 1022.45 1021.83 1021.17 1020.49 1019.80 1019.12 1018.45 1017.82 1017.22 1016.65 1016.12 1015.63 1015.17 1014.75 1014.38 1014.04 1013.74 1013.47 1013.23 1013.00 1012.77 1012.52 1012.26
1022.60 1022.51 1022.46 1022.45 1022.49 1022.59 1022.74 1022.92 1023.15 1023.39 1023.63 1023.87 1024.06 1024.20 1024.26 1024.23 1024.09 1023.85 1023.49 1023.03 1022.48 1021.86 1021.18 1020.48 1019.76 1019.05 1018.36 1017.71 1017.10 1016.53 1016.01 1015.54 1015.12 1014.75 1014.42 1014.13 1013.88 1013.66 1013.46 1013.27 1013.08 1012.89 1012.67
1022.42 1022.29 1022.20 1022.17 1022.20 1022.29 1022.44 1022.64 1022.87 1023.14 1023.41 1023.67 1023.89 1024.06 1024.15 1024.15 1024.04 1023.82 1023.49 1023.05 1022.51 1021.90 1021.23 1020.52 1019.79 1019.07 1018.37 1017.71 1017.10 1016.54 1016.03 1015.57 1015.18 1014.83 1014.53 1014.27 1014.05 1013.85 1013.68 1013.52 1013.37 1013.22 1013.06
1022.34 1022.17 1022.06 1022.01 1022.02 1022.10 1022.25 1022.45 1022.69 1022.96 1023.25 1023.52 1023.76 1023.94 1024.05 1024.07 1023.99 1023.80 1023.49 1023.08 1022.58 1021.99 1021.34 1020.65 1019.94 1019.23 1018.54 1017.88 1017.27 1016.71 1016.21 1015.76 1015.36 1015.02 1014.72 1014.46 1014.24 1014.05 1013.88 1013.73 1013.60 1013.47 1013.34
1022.39 1022.20 1022.07 1022.00 1022.01 1022.08 1022.22 1022.41 1022.65 1022.91 1023.19 1023.46 1023.69 1023.87 1023.99 1024.02 1023.96 1023.79 1023.52 1023.15 1022.68 1022.14 1021.53 1020.88 1020.21 1019.53 1018.87 1018.23 1017.62 1017.07 1016.56 1016.10 1015.69 1015.32 1015.00 1014.71 1014.47 1014.25 1014.05 1013.88 1013.73 1013.60 1013.48
1022.57 1022.38 1022.25 1022.19 1022.19 1022.26 1022.38 1022.56 1022.78 1023.02 1023.27 1023.51 1023.72 1023.88 1023.99 1024.02 1023.97 1023.82 1023.59 1023.26 1022.84 1022.35 1021.81 1021.22 1020.59 1019.96 1019.33 1018.72 1018.13 1017.57 1017.05 1016.57 1016.13 1015.72 1015.35 1015.02 1014.71 1014.44 1014.20 1013.98 1013.79 1013.62 1013.48
1022.85 1022.68 1022.57 1022.52 1022.53 1022.59 1022.71 1022.87 1023.06 1023.27 1023.47 1023.68 1023.85 1023.98 1024.06 1024.08 1024.03 1023.90 1023.69 1023.40 1023.04 1022.62 1022.13 1021.60 1021.04 1020.46 1019.87 1019.29 1018.71 1018.15 1017.62 1017.11 1016.63 1016.18 1015.75 1015.36 1014.99 1014.65 1014.34 1014.07 1013.82 1013.61 1013.43
1023.18 1023.05 1022.97 1022.94 1022.96 1023.03 1023.14 1023.28 1023.44 1023.61 1023.77 1023.93 1024.06 1024.15 1024.20 1024.20 1024.15 1024.03 1023.84 1023.59 1023.28 1022.91 1022.48 1022.02 1021.51 1020.98 1020.43 1019.87 1019.31 1018.76 1018.21 1017.68 1017.16 1016.66 1016.18 1015.73 1015.31 1014.91 1014.54 1014.21 1013.92 1013.66 1013.44
1023.52 1023.43 1023.39 1023.39 1023.43 1023.51 1023.61 1023.73 1023.87 1024.00 1024.13 1024.24 1024.33 1024.39 1024.41 1024.39 1024.32 1024.21 1024.04 1023.82 1023.55 1023.23 1022.85 1022.44 1021.98 1021.49 1020.98 1020.44 1019.90 1019.34 1018.79 1018.24 1017.70 1017.17 1016.65 1016.16 1015.70 1015.26 1014.86 1014.49 1014.16 1013.87 1013.62
Thickness
5648 5642 5637 5631 5624 5618 5611 5604 5597 5590 5583 5577 5571 5565 5559 5554 5549 5545 5542 5537 5533 5529 5524 5522 5518 5513 5510 5508 5506 5503 5500 5497 5497 5495 5487 5483 5476 5471 5468 5465 5464 5463 5463
5629 5624 5618 5613 5606 5600 5593 5585 5578 5572 5565 5559 5553 5547 5541 5536 5532 5528 5524 5520 5517 5513 5509 5505 5502 5499 5494 5492 5489 5486 5483 5478 5475 5474 5470 5466 5461 5457 5454 5452 5452 5452 5451
5612 5606 5600 5594 5588 5581 5574 5567 5561 5554 5547 5541 5535 5529 5524 5519 5515 5511 5508 5504 5500 5497 5493 5490 5487 5483 5480 5478 5473 5470 5467 5463 5458 5457 5456 5452 5449 5446 5445 5443 5442 5441 5441
5592 5586 5579 5573 5567 5561 5554 5547 5541 5535 5529 5522 5517 5512 5507 5503 5499 5494 5491 5488 5484 5481 5478 5475 5473 5470 5466 5463 5460 5457 5453 5449 5446 5444 5443 5441 5439 5438 5435 5435 5435 5435 5434
5571 5565 5558 5551 5545 5539 5533 5527 5521 5516 5510 5505 5500 5496 5491 5487 5480 5474 5473 5473 5470 5468 5466 5464 5462 5457 5451 5447 5445 5443 5440 5437 5436 5434 5434 5433 5433 5431 5429 5428 5427 5428 5429
5550 5544 5536 5530 5524 5518 5513 5508 5503 5498 5493 5488 5483 5479 5475 5470 5458 5454 5452 5456 5457 5457 5455 5453 5451 5448 5444 5437 5433 5429 5427 5427 5429 5427 5426 5426 5427 5425 5423 5422 5421 5420 5423
5529 5523 5517 5511 5506 5502 5497 5491 5486 5481 5476 5471 5467 5463 5459 5451 5443 5439 5438 5440 5445 5445 5443 5442 5441 5439 5433 5431 5427 5425 5425 5424 5421 5420 5421 5422 5421 5421 5419 5418 5416 5415 5416
5511 5505 5500 5496 5491 5486 5480 5475 5470 5465 5461 5456 5452 5447 5444 5438 5430 5427 5426 5431 5435 5434 5432 5431 5429 5427 5424 5418 5418 5421 5423 5424 5422 5421 5421 5420 5419 5417 5414 5413 5411 5412 5413
5496 5491 5486 5481 5476 5470 5465 5459 5454 5450 5446 5442 5437 5433 5430 5426 5418 5415 5413 5421 5424 5424 5423 5422 5420 5418 5414 5409 5412 5418 5422 5423 5424 5422 5420 5419 5417 5415 5411 5410 5410 5410 5411
5482 5477 5471 5466 5461 5455 5450 5445 5441 5436 5432 5429 5424 5420 5417 5414 5408 5404 5402 5410 5413 5414 5415 5415 5414 5410 5407 5406 5410 5416 5419 5422 5423 5424 5423 5422 5420 5417 5413 5410 5408 5406 5406
5468 5463 5457 5451 5446 5441 5436 5432 5428 5425 5420 5416 5413 5409 5405 5402 5399 5395 5393 5397 5400 5404 5407 5409 5410 5406 5406 5407 5408 5414 5416 5416 5421 5423 5424 5423 5421 5418 5415 5412 5408 5405 5403
5456 5450 5444 5439 5435 5430 5425 5420 5417 5413 5409 5406 5402 5400 5397 5393 5390 5388 5387 5387 5388 5395 5400 5403 5406 5404 5406 5409 5412 5415 5416 5418 5423 5425 5424 5422 5419 5417 5415 5412 5410 5407 5403
5445 5440 5433 5428 5423 5418 5414 5411 5407 5403 5401 5398 5394 5391 5389 5387 5385 5382 5383 5385 5387 5391 5397 5399 5402 5406 5409 5415 5417 5417 5419 5424 5425 5424 5423 5420 5418 5416 5414 5413 5411 5409 5406
5436 5429 5424 5419 5414 5409 5405 5402 5399 5396 5393 5391 5387 5384 5382 5381 5380 5378 5380 5384 5387 5392 5397 5402 5405 5409 5413 5416 5419 5423 5424 5425 5424 5423 5422 5420 5418 5417 5414 5412 5411 5408 5406
5427 5421 5416 5412 5408 5402 5399 5394 5391 5387 5381 5379 5379 5377 5375 5374 5371 5369 5371 5378 5382 5388 5392 5402 5408 5412 5415 5419 5422 5424 5425 5426 5425 5424 5423 5421 5420 5418 5415 5412 5410 5408 5405
5420 5415 5411 5407 5403 5400 5396 5392 5381 5379 5374 5370 5368 5366 5369 5367 5367 5370 5373 5377 5383 5387 5394 5401 5406 5409 5413 5415 5419 5422 5425 5425 5425 5425 5424 5423 5420 5418 5416 5414 5412 5409 5407
5414 5410 5406 5403 5400 5398 5395 5392 5388 5379 5373 5370 5368 5366 5366 5367 5369 5373 5377 5382 5387 5391 5397 5401 5404 5407 5411 5414 5418 5422 5425 5426 5427 5427 5426 5423 5421 5419 5417 5415 5412 5410 5408
5411 5407 5403 5401 5399 5397 5395 5392 5390 5387 5383 5377 5371 5369 5369 5371 5373 5376 5381 5386 5393 5396 5398 5400 5404 5407 5411 5415 5419 5423 5426 5429 5430 5431 5429 5426 5424 5421 5419 5416 5413 5410 5408
5411 5408 5404 5401 5399 5397 5395 5394 5391 5387 5383 5380 5377 5375 5373 5376 5378 5381 5384 5389 5392 5396 5398 5402 5405 5409 5413 5417 5422 5425 5428 5431 5433 5434 5432 5430 5427 5424 5421 5418 5415 5409 5409
5413 5401 5400 5403 5402 5400 5398 5395 5393 5389 5385 5381 5378 5377 5378 5380 5383 5385 5387 5390 5393 5396 5399 5403 5408 5412 5417 5421 5425 5429 5432 5435 5437 5438 5437 5435 5432 5429 5426 5423 5419 5417 5414
5418 5410 5399 5405 5405 5402 5399 5396 5393 5390 5387 5384 5381 5379 5377 5382 5384 5387 5389 5391 5393 5397 5400 5404 5410 5415 5420 5424 5427 5430 5433 5437 5439 5439 5440 5439 5438 5435 5432 5428 5426 5423 5420
5420 5417 5412 5410 5405 5402 5400 5398 5396 5393 5391 5389 5387 5386 5382 5385 5386 5388 5390 5392 5395 5398 5402 5405 5411 5416 5420 5424 5427 5431 5435 5438 5439 5440 5441 5442 5442 5440 5438 5435 5432 5429 5427
5422 5419 5415 5411 5408 5399 5402 5401 5398 5396 5394 5393 5391 5390 5390 5389 5389 5390 5392 5394 5398 5401 5405 5409 5413 5418 5422 5425 5429 5432 5435 5437 5437 5439 5442 5444 5445 5444 5442 5439 5437 5435 5432
5424 5421 5418 5414 5411 5408 5405 5403 5401 5399 5397 5396 5394 5393 5392 5391 5392 5393 5394 5397 5400 5404 5408 5412 5415 5419 5423 5427 5431 5434 5433 5433 5435 5440 5443 5446 5447 5446 5445 5443 5441 5439 5438
5427 5423 5420 5417 5413 5410 5407 5405 5402 5400 5399 5397 5396 5395 5394 5394 5394 5395 5396 5399 5402 5406 5410 5414 5418 5422 5425 5428 5430 5431 5432 5435 5437 5440 5444 5447 5448 5447 5447 5445 5444 5442 5441
5428 5424 5421 5418 5413 5410 5408 5406 5403 5401 5400 5398 5397 5396 5396 5396 5396 5396 5397 5399 5403 5407 5411 5415 5418 5422 5425 5428 5429 5431 5434 5437 5440 5442 5445 5447 5448 5447 5447 5447 5446 5445 5443